Regional Weather Roundup
Issued by NWS

Home | Current Version | Previous Version | Text Only | Print | Product List | Glossary Off
Versions: 1 2 3 4 5 6 7 8 9 10 11 12 13 14 15 16 17 18 19 20 21 22 23 24 25 26 27 28 29 30 31 32 33 34 35 36 37 38 39 40 41 42 43 44 45 46 47 48 49 50

000
ASUS43 KLOT 220910
RWRIL

ILLINOIS REGIONAL WEATHER ROUNDUP
NATIONAL WEATHER SERVICE CHICAGO/ROMEOVILLE IL
400 AM CDT TUE JUL 22 2014

NOTE: "FAIR" INDICATES FEW OR NO CLOUDS BELOW 12,000 FEET WITH NO
SIGNIFICANT WEATHER AND/OR OBSTRUCTIONS TO VISIBILITY.

* THESE STATIONS ARE NOT UNDER NWS QUALITY CONTROL. THEY ALSO MAY NOT
  REPORT WEATHER SUCH AS PRECIPITATION OR FOG.

ILZ001-002-007-009-015-016-024-221000-
NORTHWEST ILLINOIS

CITY           SKY/WX    TMP DP  RH WIND       PRES   REMARKS
MOLINE         CLEAR     74  66  76 S9        30.00S
STERLING*      CLEAR     70  66  88 S3        30.03S
SAVANNA*       CLEAR     71  67  88 SE7       30.00S
$$

ILZ003-004-008-010-011-017-018-221000-
NORTH CENTRAL ILLINOIS

CITY           SKY/WX    TMP DP  RH WIND       PRES   REMARKS
ROCKFORD       PTCLDY    70  65  84 S8        30.03F
FREEPORT*      CLEAR     69  67  91 S8        30.04S
ROCHELLE*      CLEAR     67  65  91 S7        30.04S
DE KALB*       CLEAR     65  63  95 S8        30.05F FOG
PERU*          CLEAR     68  64  87 S8        30.05S
$$

ILZ005-006-012>014-019>023-221000-
NORTHEAST ILLINOIS

CITY           SKY/WX    TMP DP  RH WIND       PRES   REMARKS
CHICAGO-OHARE  CLEAR     71  62  73 S7        30.05S
CHICAGO-MIDWAY CLEAR     73  65  75 S7        30.05F
AURORA         CLEAR     67  63  87 SE5       30.05F
LANSING*       CLEAR     64  61  91 S6        30.07F FOG
JOLIET*        CLEAR     67  64  88 CALM      30.07R
WAUKEGAN       CLEAR     70  64  81 S9        30.02F
DUPAGE AIRPORT CLEAR     68  64  87 S7        30.05S
KANKAKEE*      CLEAR     64  63  96 S3        30.08S
WHEELING       CLEAR     73  65  75 S7        30.05F
MORRIS*        CLEAR     66  66 100 S3        30.06R FOG
ROMEOVILLE*    CLEAR     65  64  95 S5        30.06S
NORTHERLY ISL    N/A     73  63  70 S8          N/A
$$

LMZ740>746-221000-
SOUTHERN LAKE MICHIGAN

STATION/POSITION SKY/WX   TEMP    WIND        PRES    VSBY  WAVE
                          AIR SEA DIR/SP/G                  HT/PER
                          (F)     (DEG/KT/KT) (MB)    (MI)  (FT/S)
SOUTHERN BUOY              71 69  180/ 10/ 12 1016.8F         1
WAUKEGAN HARBOR            69     220/  8/ 10 1018.3S
HARRISON CRIB              72     180/ 13/ 14   N/A
BURNHAM HARBOR             73     200/  7/ 10   N/A
CALUMET HARBOR             71     200/  4/  5 1016.8R
BURNS HARBOR               69     200/  7/  8 1018.6F
MICHIGAN CITY              71     160/  9/ 12   N/A
$$

ILZ025>027-034>036-040-047-049-050-058-095>099-221000-
WEST-CENTRAL ILLINOIS

CITY           SKY/WX    TMP DP  RH WIND       PRES   REMARKS
QUINCY         CLEAR     71  67  87 S8        30.04S
GALESBURG*     CLEAR     70  67  89 S8        30.03F
MACOMB*        CLEAR     69  67  92 S7        30.06R
JACKSONVILLE*  CLEAR     72  67  83 S7        30.06F
PITTSFIELD*    CLEAR     69  66  88 S5        30.06S FOG
$$

ILZ028>032-037-038-041>044-048-051>054-059>061-221000-
CENTRAL ILLINOIS

CITY           SKY/WX    TMP DP  RH WIND       PRES   REMARKS
PONTIAC        CLEAR     64  64 100 SE3       30.06F FOG
BLOOMINGTON    CLEAR     65  62  90 S7        30.09F
DECATUR        CLEAR     67  63  87 S3        30.09R
PEORIA         CLEAR     72  65  78 S8        30.06S
LACON*         CLEAR     69  64  83 S3        30.04S
LINCOLN*       CLEAR     66  64  91 CALM      30.05S
SPRINGFIELD    CLEAR     72  65  78 S8        30.06F
TAYLORVILLE    CLEAR     63  61  94 S5        30.08S
$$

ILZ033-039-045-046-055>057-062-063-221000-
EAST-CENTRAL ILLINOIS

CITY           SKY/WX    TMP DP  RH WIND       PRES   REMARKS
CHAMPAIGN      CLEAR     64  62  93 S6        30.10R FOG
RANTOUL*       FOG       64  61  90 CALM      30.10S VSB 1
MATTOON        CLEAR     66  64  93 S3        30.09R
PARIS*         CLEAR     61  60  98 CALM      30.10S FOG
$$

ILZ079-100>102-221000-
SOUTHWEST ILLINOIS

CITY           SKY/WX    TMP DP  RH WIND       PRES   REMARKS
ALTON          CLEAR     64  64 100 CALM      30.08S FOG
BELLEVILLE     CLEAR     65  65 100 E2        30.08R
CAHOKIA*       CLEAR     65  63  93 CALM      30.07S FOG
SPARTA*        CLEAR     64  64 100 CALM      30.09S FOG
$$

ILZ064>066-069>071-074>076-080>082-084>086-088>090-092>094-221000-
SOUTH-CENTRAL ILLINOIS

CITY           SKY/WX    TMP DP  RH WIND       PRES   REMARKS
CARBONDALE     FOG       65  63  93 CALM      30.08S VSB 3/4
CAIRO*           N/A     66  64  92 CALM      30.08R FOG
MARION           N/A     66  64  94 CALM      30.09S FOG
MT. VERNON     CLEAR     63  59  88 CALM      30.10S
CENTRALIA*     CLEAR     61  59  94 CALM      30.09S FOG
SALEM*         CLEAR     65  64  97 CALM      30.09S FOG
METROPOLIS*    CLEAR     64  63  96 CALM      30.07S FOG
$$

ILZ067-068-072-073-078-083-087-091-221000-
SOUTHEAST ILLINOIS

CITY           SKY/WX    TMP DP  RH WIND       PRES   REMARKS
FLORA*         FOG       63  63 100 CALM      30.10R VSB 1/2
FAIRFIELD*     CLEAR     64  63  94 CALM      30.09R FOG
HARRISBURG*    PTCLDY    63  63 100 CALM      30.09S FOG
ROBINSON*      FOG       63  63  99 CALM      30.10S VSB 1/2
CARMI*         CLEAR     65  65  99 CALM      30.07S FOG
$$

ABBREVIATIONS USED IN REMARKS
   TC - TEMPERATURE IN CELSIUS
  WCI - WIND CHILL INDEX
   HX - HEAT INDEX
  VSB - VISIBILITY
$$



USA.gov is the U.S. government's official web portal to all federal, state and local government web resources and services.